Vorticity
9 9 7 5 5 6 9 9 8 7 5 5 2 1 3 6 6 7 6 10 8 8 12 11 8 8 10 8 9 11 12 12 11 10 10 12 13 10 7 10 4 10 10
8 10 6 5 5 7 8 8 6 6 5 4 3 3 7 9 9 8 8 7 9 8 9 11 10 9 10 9 8 9 10 11 11 11 10 10 10 9 9 6 9 7 10
13 9 6 5 6 7 6 3 4 4 5 9 11 9 8 10 9 8 9 9 8 11 8 8 10 10 14 12 8 8 8 9 10 11 9 10 9 8 7 7 6 8 7
10 7 6 5 6 4 1 1 5 9 11 14 10 9 8 9 9 7 6 8 9 8 10 9 8 9 11 13 11 8 9 9 9 9 9 8 7 6 8 4 6 7 7
8 6 5 5 6 2 -0 4 11 16 12 8 7 7 6 7 9 12 12 9 10 9 7 10 9 8 8 10 10 11 9 10 10 7 8 9 8 6 7 7 7 6 6
7 5 4 5 6 2 -0 2 8 5 6 6 6 6 8 8 9 10 11 9 8 9 8 7 9 9 9 8 9 9 9 10 9 9 8 7 8 10 8 9 8 7 7
9 5 6 5 6 2 -0 1 11 13 6 7 8 9 11 12 12 10 10 10 9 9 10 9 8 9 8 8 8 8 9 9 9 10 10 9 8 7 7 7 6 6 7
9 10 9 6 3 1 -2 2 13 12 7 6 5 6 9 13 14 13 12 11 11 10 10 10 9 8 9 8 7 8 8 8 9 9 9 9 9 10 10 9 9 8 7
8 11 5 4 3 1 4 14 12 12 6 4 8 7 8 10 11 12 12 11 11 11 10 9 8 8 8 9 9 9 8 7 7 7 8 7 8 8 8 8 8 10 12
8 4 3 4 6 7 9 16 11 4 7 9 8 7 8 9 9 10 11 11 10 10 11 11 10 9 9 9 9 9 10 10 10 9 9 8 7 7 8 9 8 8 9
14 15 11 10 12 13 6 6 8 5 5 9 8 7 12 13 10 8 9 9 9 9 9 9 9 10 10 9 8 7 7 7 8 9 9 10 10 10 11 11 10 9 9
14 11 11 11 8 4 5 4 5 9 9 9 10 13 11 9 10 10 9 9 8 8 8 8 8 8 8 8 9 8 8 9 9 8 8 8 10 12 12 11 11 12 11
5 11 12 0 6 15 16 13 10 9 8 6 9 9 7 8 8 8 9 9 9 7 7 6 6 6 6 6 7 7 6 6 7 8 10 11 10 9 9 10 12 12 12
6 15 1 -5 2 11 16 12 9 6 5 8 8 6 9 9 9 9 8 8 8 8 8 8 8 8 9 9 9 9 10 10 9 9 9 8 8 9 10 10 9 9 9
14 8 -3 -3 -3 -1 4 17 10 6 8 8 7 9 11 11 11 10 9 8 8 7 7 7 8 8 8 8 9 9 9 9 9 8 7 7 8 8 8 8 8 8 7
14 4 -4 -3 -1 0 -0 10 17 5 4 5 8 10 9 9 11 11 10 9 9 8 9 8 8 7 7 7 7 6 6 5 5 4 3 3 3 3 4 6 6 6 7
13 5 5 2 -2 0 -3 12 14 5 4 8 11 9 7 9 10 11 10 9 9 9 8 7 7 8 7 7 6 6 5 6 7 7 8 8 9 11 12 14 16 17 18
10 7 5 -0 -3 -0 9 14 11 5 9 14 10 7 7 9 10 12 11 10 8 8 8 7 7 8 8 8 9 8 8 7 7 8 10 11 13 13 12 2 1 5 6
8 5 1 -3 -3 9 7 16 9 13 14 9 6 7 10 12 12 12 11 11 10 10 9 10 10 10 10 11 11 12 12 12 11 10 9 9 11 11 6 3 3 4 4
5 -3 -0 -2 -7 8 11 12 17 15 9 6 8 11 16 15 12 9 10 10 10 11 13 13 14 14 14 14 14 15 14 11 9 7 9 8 6 5 6 5 3 1 1
8 8 4 6 2 9 15 15 15 13 13 14 8 16 14 11 9 10 13 13 13 12 13 13 13 12 12 11 10 8 8 9 8 9 8 6 7 9 8 9 7 6 7
4 10 2 5 5 18 18 15 13 11 10 7 12 12 8 11 14 16 16 12 11 10 7 6 4 2 2 4 5 6 6 6 4 5 4 4 3 3 6 6 8 9 9
1 2 14 -2 28 19 17 17 12 11 11 12 11 11 14 15 13 9 8 5 4 2 3 3 5 6 6 6 6 6 7 9 13 13 12 13 10 10 11 12 14 15 15
2 7 17 36 19 20 13 12 12 11 11 12 12 11 11 9 4 2 2 2 7 9 4 1 2 5 6 7 9 11 15 17 16 17 17 14 12 14 15 15 15 12 12
32 38 21 17 14 13 14 16 10 5 7 8 9 7 5 4 6 8 7 2 0 1 7 10 10 11 12 17 16 20 21 19 19 20 19 18 17 16 16 19 19 19 14
28 9 17 14 14 13 0 5 13 7 6 4 5 6 7 5 3 2 3 6 9 5 6 10 13 16 17 17 15 18 14 12 15 16 20 22 20 17 17 16 14 12 11
Height
3121 3121 3121 3121 3120 3119 3117 3115 3113 3112 3111 3109 3106 3104 3101 3097 3094 3091 3087 3083 3079 3076 3073 3070 3067 3064 3060 3059 3055 3053 3052 3052 3052 3053 3054 3056 3057 3058 3060 3061 3063 3064 3065
3117 3118 3118 3118 3117 3116 3114 3112 3111 3110 3107 3106 3103 3100 3097 3093 3090 3086 3083 3079 3076 3073 3070 3067 3064 3062 3059 3056 3055 3053 3051 3050 3050 3051 3052 3052 3055 3055 3057 3058 3059 3060 3060
3111 3113 3114 3114 3114 3113 3111 3109 3108 3106 3103 3101 3099 3095 3092 3089 3086 3083 3079 3076 3072 3070 3066 3064 3062 3059 3057 3055 3052 3051 3049 3049 3049 3049 3049 3050 3050 3052 3053 3054 3055 3056 3056
3108 3110 3111 3111 3110 3109 3107 3105 3104 3102 3099 3097 3095 3091 3087 3085 3081 3077 3074 3071 3069 3066 3063 3061 3058 3056 3054 3053 3051 3049 3048 3047 3047 3047 3047 3047 3048 3048 3049 3050 3050 3051 3051
3106 3107 3107 3107 3107 3105 3105 3103 3100 3097 3095 3093 3090 3087 3084 3080 3076 3073 3070 3068 3065 3062 3060 3058 3055 3052 3050 3049 3048 3047 3046 3044 3044 3044 3044 3044 3044 3044 3044 3044 3045 3045 3046
3103 3103 3103 3103 3103 3103 3102 3099 3096 3094 3091 3089 3087 3084 3080 3075 3072 3069 3066 3064 3060 3058 3056 3054 3052 3050 3047 3045 3044 3043 3042 3041 3041 3040 3040 3040 3040 3039 3040 3040 3040 3040 3040
3100 3101 3100 3100 3100 3099 3098 3095 3092 3089 3087 3085 3082 3079 3075 3071 3067 3064 3062 3059 3058 3055 3053 3051 3049 3047 3045 3042 3041 3040 3039 3038 3037 3037 3036 3036 3035 3035 3034 3034 3034 3035 3035
3098 3098 3097 3097 3096 3095 3093 3090 3087 3085 3083 3081 3077 3074 3070 3066 3063 3060 3058 3056 3054 3051 3049 3047 3044 3043 3041 3040 3038 3037 3035 3034 3033 3032 3031 3031 3030 3030 3030 3029 3028 3028 3028
3094 3094 3094 3093 3092 3090 3088 3085 3082 3079 3078 3075 3072 3069 3066 3061 3058 3056 3053 3052 3049 3047 3045 3043 3041 3040 3038 3037 3035 3034 3032 3031 3029 3027 3026 3026 3025 3024 3023 3022 3021 3020 3020
3091 3090 3089 3088 3087 3084 3082 3079 3077 3075 3073 3070 3067 3064 3060 3057 3054 3051 3049 3046 3044 3042 3040 3039 3037 3035 3034 3032 3031 3030 3029 3027 3025 3023 3021 3020 3019 3017 3016 3015 3014 3013 3012
3086 3085 3084 3082 3081 3078 3076 3074 3072 3070 3067 3064 3061 3057 3055 3052 3049 3046 3043 3041 3038 3036 3034 3033 3031 3030 3029 3028 3027 3026 3024 3023 3021 3019 3017 3015 3013 3012 3010 3009 3008 3006 3004
3081 3080 3079 3077 3075 3073 3071 3069 3067 3064 3062 3058 3055 3052 3049 3047 3044 3041 3039 3037 3035 3033 3031 3029 3028 3026 3025 3023 3022 3020 3019 3018 3016 3014 3012 3009 3007 3005 3003 3001 3001 3000 2997
3076 3075 3074 3073 3072 3069 3066 3064 3061 3058 3055 3052 3049 3046 3044 3041 3038 3036 3034 3032 3030 3028 3026 3024 3023 3021 3020 3018 3017 3016 3013 3011 3010 3008 3006 3005 3002 3000 2997 2995 2993 2991 2990
3071 3069 3069 3068 3066 3063 3061 3058 3055 3052 3049 3046 3043 3040 3038 3035 3032 3030 3027 3025 3023 3021 3019 3018 3016 3014 3013 3012 3010 3009 3007 3005 3003 3001 2999 2997 2996 2994 2991 2989 2987 2984 2984
3065 3064 3062 3061 3059 3056 3054 3052 3049 3046 3043 3040 3036 3033 3030 3028 3025 3023 3020 3018 3016 3014 3012 3010 3009 3007 3006 3004 3003 3001 3000 2999 2997 2995 2993 2991 2989 2987 2984 2982 2979 2977 2975
3057 3057 3055 3054 3052 3049 3047 3044 3041 3039 3036 3033 3029 3026 3024 3021 3018 3015 3013 3011 3009 3007 3005 3003 3001 3000 2997 2995 2994 2993 2992 2991 2989 2988 2986 2984 2983 2981 2978 2976 2973 2971 2968
3050 3049 3048 3047 3045 3043 3040 3037 3033 3030 3027 3023 3020 3018 3016 3013 3010 3008 3006 3003 3001 2999 2997 2995 2994 2992 2989 2987 2985 2983 2983 2982 2980 2979 2977 2975 2974 2971 2970 2967 2965 2963 2960
3043 3042 3041 3039 3038 3035 3031 3028 3025 3022 3018 3015 3012 3010 3007 3004 3002 3000 2997 2995 2993 2991 2989 2987 2984 2982 2980 2978 2976 2975 2973 2972 2971 2969 2967 2965 2964 2962 2960 2958 2956 2954 2952
3035 3034 3033 3030 3028 3026 3022 3018 3015 3011 3008 3005 3002 3000 2998 2995 2993 2991 2989 2987 2985 2983 2980 2977 2975 2972 2971 2969 2966 2963 2962 2961 2960 2958 2956 2954 2953 2952 2949 2947 2946 2945 2943
3029 3027 3024 3021 3018 3014 3010 3007 3004 3000 2997 2995 2994 2991 2989 2986 2984 2982 2979 2977 2975 2973 2970 2968 2966 2963 2961 2959 2956 2952 2950 2949 2948 2948 2946 2944 2943 2941 2938 2936 2934 2933 2932
3020 3018 3014 3010 3008 3005 3001 2997 2994 2991 2988 2985 2984 2981 2979 2977 2974 2972 2969 2966 2965 2963 2961 2959 2957 2954 2952 2950 2947 2944 2940 2938 2936 2934 2933 2932 2929 2927 2927 2924 2922 2921 2917
3008 3005 3003 3001 2997 2993 2990 2987 2983 2980 2978 2975 2973 2972 2970 2968 2965 2962 2961 2958 2956 2954 2952 2949 2947 2945 2943 2940 2938 2935 2931 2927 2923 2921 2919 2917 2915 2913 2912 2910 2909 2906 2902
2998 2994 2992 2988 2985 2981 2979 2976 2974 2971 2969 2967 2965 2964 2961 2959 2956 2953 2952 2950 2947 2944 2941 2939 2935 2933 2930 2928 2926 2921 2917 2914 2910 2906 2902 2899 2898 2896 2896 2896 2893 2891 2888
2985 2981 2979 2977 2975 2971 2969 2967 2965 2962 2960 2958 2957 2955 2953 2951 2949 2946 2943 2940 2938 2934 2932 2928 2925 2921 2918 2914 2910 2906 2901 2897 2893 2891 2887 2884 2881 2880 2880 2879 2878 2876 2874
2971 2968 2966 2965 2965 2964 2961 2958 2957 2955 2953 2951 2949 2947 2944 2941 2938 2935 2933 2930 2927 2923 2919 2915 2911 2907 2902 2900 2895 2891 2886 2883 2879 2875 2870 2868 2866 2865 2864 2863 2863 2863 2861
2955 2956 2956 2956 2956 2955 2954 2950 2947 2944 2942 2939 2937 2934 2932 2929 2925 2921 2918 2916 2912 2910 2906 2903 2899 2895 2890 2887 2884 2879 2875 2872 2868 2862 2859 2856 2855 2853 2852 2850 2849 2849 2848